User: anonymous
Location: Hepcat Sky Observatory
(29.9800°N, 95.6500°W)
Time: 20:42:42
(UTC-05:00)
Language:

ALOS - Orbit

View from above orbital plane
View from above orbital plane
View from above satellite
View from above satellite

Ground track
Ground track

The orbit data is extracted from the following two-line orbital elements,

1 28931U 06002A   14211.78794958  .00000413  00000-0  92841-4 0   174
2 28931 097.9783 268.3268 0002409 070.1084 290.0304 14.61220653453693
Epoch (UTC): 30 July 2014 18:54:38
Eccentricity: 0.0002409
inclination: 97.9783°
perigee height: 687 km
apogee height: 691 km
right ascension of ascending node: 268.3268°
argument of perigee: 70.1084°
revolutions per day: 14.61220653
mean anomaly at epoch: 290.0304°
orbit number at epoch: 45369

The dashed part of the orbit path shows where the satellite is in the earth's shadow,  

DLR